This is the latest recevied weather packets stored in our database for station/object KT2UU-13. If no packets are shown the sender has not sent any weather packets the latest 10 day(s).
| Time | Temp. | Humidity | Pressure | Rain* | Wind** | Luminosity | Snow |
|---|---|---|---|---|---|---|---|
| 1777655878 | 17.78° C | 63% | 1015.7 hPa | 0 mm | - | - | - |
| 1777655575 | 18.33° C | 62% | 1015.9 hPa | 0 mm | - | - | - |
| 1777655272 | 18.33° C | 64% | 1015.9 hPa | 0 mm | - | - | - |
| 1777654969 | 18.33° C | 61% | 1015.8 hPa | 0 mm | - | - | - |
| 1777654666 | 18.89° C | 61% | 1015.9 hPa | 0 mm | - | - | - |
| 1777654364 | 18.89° C | 60% | 1015.9 hPa | 0 mm | - | - | - |
| 1777654062 | 18.33° C | 64% | 1016.1 hPa | 0 mm | - | - | - |
| 1777653758 | 17.78° C | 63% | 1015.8 hPa | 0 mm | - | - | - |
| 1777653454 | 17.78° C | 59% | 1016 hPa | 0 mm | - | - | - |
| 1777653151 | 17.78° C | 58% | 1016.1 hPa | 0 mm | - | - | - |
| 1777652847 | 17.78° C | 60% | 1016.1 hPa | 0 mm | - | - | - |
| 1777652544 | 17.22° C | 60% | 1016.2 hPa | 0 mm | - | - | - |
| 1777652241 | 17.22° C | 66% | 1016.1 hPa | 0 mm | - | - | - |
| 1777651938 | 17.78° C | 62% | 1016.2 hPa | 0 mm | - | - | - |
| 1777651635 | 17.22° C | 67% | 1016.3 hPa | 0 mm | - | - | - |
| 1777651332 | 17.22° C | 68% | 1016.3 hPa | 0 mm | - | - | - |
| 1777651029 | 16.67° C | 67% | 1016.1 hPa | 0 mm | - | - | - |
| 1777650726 | 17.22° C | 66% | 1016.1 hPa | 0 mm | - | - | - |
| 1777650423 | 16.67° C | 65% | 1016.4 hPa | 0 mm | - | - | - |
| 1777650120 | 16.67° C | 65% | 1016.2 hPa | 0 mm | - | - | - |
| 1777649817 | 16.67° C | 67% | 1016.1 hPa | 0 mm | - | - | - |
| 1777649514 | 16.67° C | 65% | 1016.1 hPa | 0 mm | - | - | - |
| 1777649210 | 16.67° C | 66% | 1016.1 hPa | 0 mm | - | - | - |
| 1777648908 | 16.67° C | 66% | 1016.1 hPa | 0 mm | - | - | - |
| 1777648604 | 16.67° C | 67% | 1016.1 hPa | 0 mm | - | - | - |
* Rain latest hour (hover to see other rain measurements)
** Current wind speed in m/s (hover to see current wind gust speed)